Home   Weather   Santos   Past weeks

Flag for Brazil Past Weather in Santos, São Paulo, Brazil — Yesterday and Last 2 Weeks

Now
72 °F

Passing clouds.


Feels Like: 71 °F
Forecast: 75 / 87 °F
Wind: 5 mph from Northeast

Location: Sao Paulo Airport

Current Time: Jan 16, 2017 at 9:23:18 am

Latest Report: Jan 16, 2017 at 8:00 am


Visibility: N/A

Pressure: 29.95 "Hg

Humidity: 83%

Dew Point: 66 °F

Location of SantosLocation

Past Weather in Santos — Graph

°F

Santos Temperature Yesterday

Maximum temperature yesterday: 82 °F (at 1:00 pm)
Minimum temperature yesterday: 70 °F (at 4:00 am)
Average temperature yesterday: 74 °F

High & Low Weather Summary for the Past Weeks

 TemperatureHumidityPressure
High88 °F (Jan 1, 4:00 pm)88% (Jan 2, 5:21 pm)30.12 "Hg (Jan 2, 5:21 pm)
Low66 °F (Jan 13, 3:00 am)43% (Jan 1, 4:00 pm)29.86 "Hg (Jan 14, 5:00 pm)
Average75 °F72%30.00 "Hg
* Reported Jan 1 8:00 am — Jan 16 8:00 am, Santos, Weather by CustomWeather, © 2017

Note: Actual official high and low records may vary slightly from our data, if they occured in-between our weather recording intervals... More about our weather records

Advertising

Santos Weather History for the Previous 24 Hours

Scroll right to see more
 ConditionsComfort  
Time TempWeatherWind HumidityBarometerVisibility
8:00 am
Mon, Jan 16
72 °FPassing clouds.5 mph83%29.95 "HgN/A
7:00 am70 °FPassing clouds.5 mph88%29.95 "HgN/A
6:00 am70 °FLight rain. Partly cloudy.8 mph88%29.95 "Hg6 mi
5:00 am70 °FLight rain. Passing clouds.3 mph88%29.92 "HgN/A
4:06 am70 °FPassing clouds.2 mph88%29.92 "HgN/A
4:00 am70 °FPassing clouds.2 mph88%29.92 "HgN/A
3:00 am70 °FPassing clouds.2 mph83%29.95 "HgN/A
2:00 am68 °FLight rain. Passing clouds.No wind83%29.95 "HgN/A
1:38 am68 °FRain. Passing clouds.1 mph83%29.95 "Hg6 mi
1:14 am68 °FLight rain. Passing clouds.2 mph88%29.98 "HgN/A
1:01 am68 °FRain. Passing clouds.5 mph88%29.98 "Hg6 mi
12:33 am68 °FStrong thunderstorms. Mostly cloudy.6 mph88%30.01 "Hg1 mi
12:20 am70 °FStrong thunderstorms. Mostly cloudy.3 mph88%30.01 "Hg3 mi
12:01 am72 °FThundershowers. Mostly cloudy.2 mph88%29.98 "Hg6 mi
12:00 am72 °FLight rain. Overcast.6 mph83%29.98 "HgN/A
11:36 pm
Sun, Jan 15
72 °FThundershowers. Mostly cloudy.6 mph88%29.98 "Hg5 mi
11:12 pm72 °FHeavy rain. Overcast.5 mph83%29.98 "Hg3 mi
11:02 pm72 °FThundershowers. Mostly cloudy.6 mph83%29.98 "HgN/A
11:00 pm72 °FLight rain. Passing clouds.6 mph83%29.98 "Hg6 mi
9:22 pm72 °FThundershowers. Passing clouds.9 mph83%N/A6 mi
8:00 pm73 °FMostly cloudy.12 mph83%29.92 "Hg6 mi
7:00 pm73 °FPartly sunny.12 mph83%29.89 "Hg6 mi
6:00 pm75 °FBroken clouds.12 mph78%29.89 "Hg6 mi
5:00 pm75 °FPartly sunny.12 mph83%29.89 "HgN/A
4:37 pm75 °FBroken clouds.10 mph83%29.89 "HgN/A
4:00 pm73 °FThunderstorms. Partly sunny.12 mph78%29.89 "Hg6 mi
3:23 pm81 °FThunderstorms. Partly sunny.12 mph66%29.89 "HgN/A
2:00 pm82 °FBroken clouds.6 mph55%29.92 "HgN/A
1:00 pm82 °FPartly sunny.5 mph55%29.98 "HgN/A
12:00 pm81 °FScattered clouds.6 mph58%29.98 "HgN/A
11:00 am79 °FPassing clouds.3 mph65%29.98 "HgN/A
10:00 am77 °FPassing clouds.2 mph69%29.98 "HgN/A
9:00 am73 °FScattered clouds.2 mph78%29.98 "HgN/A
Weather by CustomWeather, © 2017

See weather overviewHow to use our weather pages